Погода в Ялхой-Мохке

Россия / Чеченская Республика     43°06′24″N   46°11′20″E
темп.,
°C
ветер,
м/с
пор.,
м/с
влажн.,
%
обл.,
%
осадки,
мм/ч
давл.,
гПа
погр.,
м
16 сентября, чт
чт1600:00+16ю22700 0.0 101314
03:00+15ю21730 0.0 101211
06:00+15ю22760 0.0 101113
09:00+21с21530 0.0 1010601
12:00+23с32479 0.0 10101319
15:00+23с334446 0.1 10101689
18:00+18в125462 0.0 101249
21:00+16юв116039 0.0 101412
17 сентября, пт
пт1700:00+15ююв116451 0.0 101511
03:00+13в116754 0.0 101512
06:00+13вюв017228 0.0 101516
09:00+17с2262100 0.0 1015838
12:00+17св3364100 0.0 1014977
15:00+16св3471100 0.2 1014658
18:00+13ссз1189100 0.9 101690
21:00+12юв1194100 1.6 101656
18 сентября, сб
сб1800:00+12вюв0095100 0.8 101621
03:00+11юв0097100 1.0 101610
06:00+11юв019417 0.0 101610
09:00+15с218276 0.0 1017525
12:00+17ссв227296 0.6 1016843
15:00+17св117270 0.9 1016725
18:00+14ссв118423 0.1 101642
21:00+13ююв21875 0.2 101714
19 сентября, вс
вс1900:00+12ююв11850 0.0 101611
03:00+12ююв118733 0.0 101613
06:00+12ююз1182100 0.0 101614
09:00+18с216226 0.0 1016503
12:00+21с325467 0.0 1014953
15:00+21ссз3252100 0.2 10141146
18:00+15ююз218646 0.9 101514
21:00+14ю218471 0.9 101614
20 сентября, пн
пн2000:00+14ю218338 0.0 101511
03:00+13ю22822 0.0 101415
06:00+13ю22764 0.0 101420
09:00+20с21545 0.0 1013510
12:00+23с324813 0.0 10121239
15:00+23ссв324832 0.3 10111308
18:00+17ю117192 0.7 101311
21:00+16ю327540 1.0 101437